Location: Newark
(48.2308°N, 120.8549°W)
Time: 03:14:48
(UTC+00:00)

FENGYUN 1C DEB - Pass Details

Date: 31 January 2022
Orbit: 822 x 948 km, 99.2° (Epoch: 28 May)

Event Time Altitude Azimuth Distance (km) Brightness Sun altitude
Rises 01:41:30 0° 118° (ESE) 3,618 ? -7.2°
Reaches altitude 10° 01:44:28 10° 104° (ESE) 2,673 ? -7.7°
Maximum altitude 01:48:54 22° 56° (NE) 1,933 ? -8.4°
Drops below altitude 10° 01:53:18 10° 8° (N) 2,651 ? -9.1°
Sets 01:56:14 0° 354° (N) 3,581 ? -9.6°
